QPF
0.00 0.00 0.00 0.00 0.00 0.00 0.00 0.00 0.00 0.01 0.01 0.01 0.02 0.03 0.04 0.05 0.06 0.06 0.04 0.03 0.02 0.01 0.00 0.00 0.00 0.00 0.00 0.01 0.01 0.02 0.04 0.05 0.03 0.03 0.04 0.08 0.11 0.08 0.06 0.04 0.03 0.02 0.01
0.00 0.00 0.00 0.00 0.00 0.00 0.00 0.00 0.00 0.00 0.00 0.00 0.00 0.00 0.01 0.02 0.04 0.05 0.04 0.03 0.03 0.02 0.01 0.01 0.00 0.00 0.00 0.00 0.01 0.02 0.04 0.07 0.06 0.05 0.06 0.09 0.09 0.08 0.06 0.04 0.03 0.02 0.01
0.00 0.00 0.00 0.00 0.00 0.00 0.00 0.00 0.00 0.00 0.00 0.00 0.00 0.00 0.00 0.01 0.02 0.03 0.03 0.03 0.03 0.02 0.01 0.01 0.01 0.00 0.00 0.00 0.01 0.02 0.03 0.04 0.06 0.07 0.06 0.08 0.10 0.09 0.07 0.06 0.04 0.02 0.02
0.00 0.00 0.00 0.00 0.00 0.00 0.00 0.00 0.00 0.00 0.00 0.00 0.00 0.00 0.00 0.00 0.01 0.02 0.03 0.04 0.05 0.04 0.03 0.02 0.02 0.01 0.00 0.00 0.00 0.01 0.02 0.03 0.04 0.04 0.05 0.07 0.09 0.10 0.08 0.07 0.06 0.04 0.02
0.00 0.00 0.00 0.00 0.00 0.00 0.00 0.00 0.00 0.00 0.00 0.00 0.00 0.00 0.00 0.00 0.00 0.01 0.03 0.04 0.06 0.05 0.05 0.04 0.03 0.01 0.00 0.00 0.00 0.00 0.01 0.02 0.03 0.04 0.04 0.05 0.07 0.09 0.08 0.05 0.04 0.05 0.03
0.00 0.00 0.00 0.00 0.00 0.00 0.00 0.00 0.00 0.00 0.00 0.00 0.00 0.00 0.00 0.00 0.00 0.00 0.01 0.02 0.05 0.07 0.07 0.06 0.04 0.02 0.01 0.00 0.00 0.00 0.00 0.01 0.02 0.03 0.04 0.04 0.05 0.06 0.06 0.05 0.04 0.04 0.03
0.00 0.00 0.00 0.00 0.00 0.00 0.00 0.00 0.00 0.00 0.00 0.00 0.00 0.00 0.00 0.00 0.00 0.00 0.01 0.02 0.04 0.07 0.09 0.08 0.05 0.02 0.01 0.01 0.00 0.00 0.00 0.01 0.01 0.02 0.03 0.04 0.05 0.04 0.05 0.06 0.04 0.03 0.03
0.00 0.00 0.00 0.00 0.00 0.00 0.00 0.00 0.00 0.00 0.01 0.00 0.00 0.00 0.00 0.00 0.00 0.00 0.01 0.02 0.04 0.07 0.10 0.09 0.06 0.03 0.01 0.01 0.01 0.00 0.00 0.01 0.02 0.03 0.03 0.04 0.06 0.06 0.06 0.06 0.05 0.04 0.04
0.01 0.01 0.01 0.01 0.01 0.01 0.00 0.00 0.00 0.01 0.01 0.00 0.00 0.00 0.00 0.00 0.00 0.00 0.01 0.02 0.05 0.09 0.12 0.12 0.08 0.04 0.02 0.01 0.01 0.00 0.01 0.02 0.03 0.05 0.06 0.07 0.07 0.07 0.05 0.04 0.04 0.03 0.04
0.02 0.02 0.02 0.02 0.02 0.02 0.01 0.01 0.00 0.01 0.01 0.01 0.00 0.00 0.00 0.00 0.00 0.00 0.01 0.03 0.07 0.12 0.16 0.16 0.13 0.08 0.04 0.02 0.01 0.00 0.01 0.01 0.02 0.04 0.05 0.06 0.06 0.06 0.05 0.03 0.02 0.01 0.01
0.03 0.03 0.03 0.03 0.03 0.02 0.02 0.01 0.01 0.01 0.01 0.01 0.00 0.00 0.00 0.00 0.00 0.00 0.01 0.03 0.08 0.14 0.19 0.20 0.16 0.11 0.06 0.02 0.01 0.00 0.01 0.01 0.01 0.02 0.03 0.04 0.04 0.05 0.04 0.02 0.02 0.01 0.01
0.03 0.03 0.02 0.02 0.02 0.02 0.02 0.02 0.02 0.01 0.01 0.01 0.01 0.00 0.01 0.01 0.00 0.00 0.01 0.03 0.09 0.18 0.25 0.25 0.22 0.17 0.10 0.04 0.02 0.01 0.01 0.01 0.01 0.02 0.03 0.02 0.02 0.03 0.03 0.02 0.01 0.01 0.01
0.03 0.03 0.03 0.03 0.03 0.03 0.03 0.03 0.02 0.02 0.01 0.01 0.01 0.01 0.01 0.01 0.01 0.01 0.01 0.03 0.10 0.21 0.32 0.38 0.32 0.24 0.15 0.07 0.03 0.01 0.01 0.01 0.01 0.02 0.02 0.02 0.01 0.02 0.02 0.02 0.01 0.01 0.00
0.04 0.04 0.04 0.05 0.04 0.05 0.05 0.04 0.03 0.02 0.02 0.01 0.01 0.02 0.02 0.02 0.02 0.02 0.01 0.03 0.12 0.26 0.37 0.42 0.39 0.31 0.20 0.12 0.06 0.01 0.00 0.00 0.01 0.01 0.01 0.02 0.01 0.01 0.01 0.01 0.01 0.00 0.00
0.04 0.04 0.05 0.05 0.05 0.05 0.05 0.04 0.04 0.03 0.02 0.02 0.02 0.02 0.02 0.02 0.03 0.04 0.04 0.06 0.16 0.31 0.40 0.45 0.44 0.34 0.22 0.14 0.07 0.02 0.00 0.00 0.00 0.00 0.01 0.01 0.01 0.01 0.01 0.01 0.00 0.00 0.00
0.06 0.05 0.06 0.06 0.06 0.05 0.04 0.04 0.03 0.02 0.01 0.01 0.01 0.01 0.01 0.01 0.03 0.04 0.05 0.09 0.21 0.35 0.43 0.45 0.40 0.29 0.19 0.11 0.06 0.02 0.00 0.00 0.00 0.00 0.00 0.00 0.00 0.00 0.00 0.00 0.00 0.00 0.00
0.06 0.06 0.07 0.06 0.05 0.04 0.03 0.03 0.03 0.02 0.01 0.01 0.01 0.00 0.01 0.01 0.02 0.05 0.08 0.14 0.24 0.33 0.40 0.39 0.31 0.21 0.14 0.09 0.04 0.01 0.00 0.00 0.00 0.00 0.00 0.00 0.00 0.00 0.00 0.00 0.00 0.00 0.00
0.06 0.06 0.05 0.05 0.04 0.04 0.04 0.04 0.03 0.03 0.02 0.01 0.01 0.01 0.01 0.02 0.05 0.09 0.12 0.18 0.27 0.33 0.34 0.31 0.24 0.15 0.10 0.06 0.02 0.01 0.00 0.00 0.00 0.00 0.00 0.00 0.00 0.00 0.00 0.00 0.00 0.00 0.00
0.04 0.04 0.04 0.03 0.03 0.03 0.03 0.03 0.03 0.03 0.03 0.02 0.02 0.02 0.03 0.06 0.10 0.12 0.14 0.18 0.24 0.26 0.26 0.22 0.16 0.10 0.07 0.04 0.02 0.01 0.00 0.00 0.00 0.00 0.00 0.00 0.00 0.00 0.00 0.00 0.00 0.00 0.00
0.04 0.04 0.02 0.02 0.02 0.02 0.02 0.02 0.02 0.03 0.04 0.04 0.05 0.04 0.05 0.08 0.11 0.13 0.14 0.17 0.20 0.18 0.16 0.13 0.09 0.06 0.04 0.02 0.01 0.00 0.00 0.00 0.00 0.00 0.00 0.00 0.00 0.00 0.00 0.00 0.00 0.00 0.00
0.03 0.03 0.02 0.02 0.02 0.02 0.02 0.02 0.03 0.05 0.08 0.08 0.07 0.05 0.06 0.08 0.11 0.11 0.12 0.14 0.13 0.12 0.10 0.07 0.05 0.03 0.01 0.00 0.00 0.00 0.00 0.00 0.00 0.00 0.00 0.00 0.00 0.00 0.00 0.00 0.00 0.00 0.00
0.03 0.02 0.02 0.02 0.02 0.02 0.02 0.03 0.04 0.05 0.07 0.07 0.05 0.05 0.07 0.08 0.09 0.09 0.10 0.10 0.07 0.05 0.04 0.02 0.01 0.01 0.00 0.00 0.00 0.00 0.00 0.00 0.00 0.00 0.00 0.00 0.00 0.00 0.00 0.00 0.00 0.00 0.00
0.03 0.02 0.01 0.01 0.01 0.01 0.02 0.03 0.04 0.05 0.05 0.04 0.04 0.04 0.05 0.06 0.06 0.06 0.07 0.06 0.05 0.03 0.02 0.01 0.00 0.00 0.00 0.00 0.00 0.00 0.00 0.00 0.00 0.00 0.00 0.00 0.00 0.00 0.00 0.00 0.00 0.00 0.00
0.03 0.02 0.01 0.01 0.01 0.01 0.02 0.02 0.03 0.04 0.04 0.03 0.03 0.03 0.03 0.04 0.04 0.04 0.04 0.04 0.03 0.03 0.02 0.01 0.00 0.00 0.00 0.00 0.00 0.00 0.00 0.00 0.00 0.00 0.00 0.00 0.00 0.00 0.00 0.00 0.00 0.00 0.00
0.03 0.02 0.02 0.01 0.01 0.01 0.01 0.01 0.02 0.02 0.02 0.02 0.02 0.02 0.02 0.02 0.01 0.02 0.02 0.03 0.03 0.02 0.01 0.01 0.00 0.00 0.00 0.00 0.00 0.00 0.00 0.00 0.00 0.00 0.00 0.00 0.00 0.00 0.00 0.00 0.00 0.00 0.00
0.03 0.02 0.02 0.01 0.01 0.01 0.01 0.01 0.01 0.01 0.01 0.01 0.02 0.01 0.01 0.01 0.01 0.01 0.02 0.02 0.02 0.01 0.01 0.00 0.00 0.00 0.00 0.00 0.00 0.00 0.00 0.00 0.00 0.00 0.00 0.00 0.00 0.00 0.00 0.00 0.00 0.00 0.00
MSLP
1011.11 1010.99 1010.91 1010.85 1010.79 1010.72 1010.62 1010.50 1010.36 1010.19 1009.99 1009.76 1009.52 1009.27 1009.02 1008.77 1008.55 1008.37 1008.23 1008.14 1008.08 1008.05 1008.03 1007.98 1007.92 1007.82 1007.70 1007.57 1007.47 1007.43 1007.48 1007.64 1007.90 1008.26 1008.70 1009.18 1009.66 1010.11 1010.51 1010.84 1011.12 1011.35 1011.55
1010.41 1010.25 1010.14 1010.06 1010.02 1009.99 1009.96 1009.93 1009.87 1009.80 1009.68 1009.54 1009.35 1009.13 1008.90 1008.65 1008.42 1008.20 1008.03 1007.88 1007.77 1007.67 1007.57 1007.45 1007.31 1007.14 1006.97 1006.81 1006.70 1006.68 1006.77 1006.99 1007.35 1007.83 1008.41 1009.03 1009.66 1010.25 1010.78 1011.22 1011.59 1011.89 1012.13
1009.58 1009.38 1009.23 1009.15 1009.11 1009.11 1009.13 1009.17 1009.20 1009.21 1009.19 1009.13 1009.02 1008.86 1008.66 1008.45 1008.23 1008.01 1007.82 1007.64 1007.49 1007.34 1007.18 1007.00 1006.80 1006.58 1006.36 1006.17 1006.04 1006.03 1006.14 1006.42 1006.84 1007.41 1008.08 1008.81 1009.55 1010.26 1010.90 1011.45 1011.91 1012.29 1012.59
1008.71 1008.47 1008.29 1008.18 1008.13 1008.14 1008.20 1008.29 1008.38 1008.47 1008.53 1008.55 1008.52 1008.43 1008.29 1008.12 1007.93 1007.74 1007.55 1007.37 1007.20 1007.03 1006.84 1006.63 1006.39 1006.14 1005.89 1005.68 1005.55 1005.53 1005.65 1005.94 1006.40 1007.00 1007.73 1008.52 1009.34 1010.12 1010.85 1011.49 1012.04 1012.49 1012.87
1007.85 1007.58 1007.38 1007.24 1007.17 1007.17 1007.24 1007.35 1007.48 1007.62 1007.74 1007.83 1007.86 1007.84 1007.76 1007.64 1007.50 1007.34 1007.18 1007.02 1006.86 1006.69 1006.50 1006.30 1006.06 1005.81 1005.56 1005.34 1005.21 1005.18 1005.30 1005.58 1006.04 1006.64 1007.37 1008.17 1009.02 1009.84 1010.63 1011.33 1011.96 1012.49 1012.95
1007.08 1006.78 1006.55 1006.37 1006.27 1006.25 1006.30 1006.40 1006.55 1006.71 1006.87 1007.00 1007.08 1007.11 1007.08 1007.01 1006.91 1006.80 1006.67 1006.55 1006.42 1006.28 1006.13 1005.95 1005.75 1005.53 1005.31 1005.12 1005.00 1004.97 1005.08 1005.34 1005.76 1006.33 1007.02 1007.80 1008.62 1009.46 1010.26 1011.02 1011.70 1012.32 1012.87
1006.40 1006.08 1005.81 1005.60 1005.46 1005.40 1005.41 1005.49 1005.62 1005.79 1005.95 1006.10 1006.21 1006.27 1006.28 1006.25 1006.19 1006.12 1006.03 1005.95 1005.87 1005.79 1005.69 1005.57 1005.43 1005.27 1005.11 1004.96 1004.87 1004.86 1004.96 1005.19 1005.57 1006.08 1006.71 1007.44 1008.22 1009.03 1009.83 1010.61 1011.35 1012.03 1012.66
1005.81 1005.47 1005.16 1004.91 1004.72 1004.61 1004.58 1004.62 1004.72 1004.86 1005.02 1005.17 1005.29 1005.37 1005.41 1005.41 1005.38 1005.34 1005.29 1005.26 1005.23 1005.20 1005.17 1005.13 1005.07 1004.99 1004.90 1004.82 1004.78 1004.80 1004.91 1005.13 1005.47 1005.93 1006.49 1007.15 1007.88 1008.65 1009.43 1010.21 1010.97 1011.70 1012.40
1005.25 1004.88 1004.54 1004.25 1004.01 1003.85 1003.77 1003.77 1003.84 1003.95 1004.09 1004.23 1004.36 1004.45 1004.50 1004.52 1004.52 1004.52 1004.51 1004.52 1004.54 1004.57 1004.60 1004.64 1004.66 1004.67 1004.67 1004.67 1004.70 1004.77 1004.91 1005.13 1005.45 1005.87 1006.39 1006.99 1007.66 1008.38 1009.13 1009.89 1010.66 1011.41 1012.15
1004.68 1004.27 1003.89 1003.55 1003.28 1003.07 1002.96 1002.92 1002.95 1003.05 1003.17 1003.31 1003.44 1003.54 1003.62 1003.66 1003.69 1003.72 1003.75 1003.79 1003.85 1003.93 1004.02 1004.12 1004.21 1004.30 1004.39 1004.48 1004.59 1004.73 1004.92 1005.18 1005.51 1005.92 1006.41 1006.98 1007.60 1008.28 1008.98 1009.72 1010.46 1011.21 1011.95
1004.04 1003.59 1003.17 1002.79 1002.48 1002.24 1002.09 1002.03 1002.05 1002.13 1002.26 1002.41 1002.55 1002.68 1002.78 1002.87 1002.93 1002.99 1003.05 1003.12 1003.22 1003.33 1003.46 1003.61 1003.76 1003.92 1004.08 1004.25 1004.44 1004.66 1004.93 1005.24 1005.61 1006.05 1006.55 1007.10 1007.70 1008.34 1009.01 1009.70 1010.40 1011.11 1011.81
1003.31 1002.81 1002.35 1001.94 1001.59 1001.34 1001.18 1001.11 1001.13 1001.22 1001.36 1001.52 1001.70 1001.87 1002.02 1002.15 1002.26 1002.36 1002.45 1002.55 1002.67 1002.80 1002.95 1003.12 1003.31 1003.51 1003.73 1003.98 1004.25 1004.56 1004.91 1005.30 1005.74 1006.23 1006.76 1007.32 1007.92 1008.54 1009.17 1009.81 1010.46 1011.10 1011.75
1002.50 1001.96 1001.45 1001.01 1000.66 1000.39 1000.23 1000.17 1000.20 1000.30 1000.47 1000.68 1000.90 1001.12 1001.33 1001.51 1001.67 1001.82 1001.95 1002.07 1002.20 1002.34 1002.49 1002.67 1002.87 1003.10 1003.37 1003.67 1004.01 1004.40 1004.84 1005.32 1005.84 1006.40 1006.99 1007.59 1008.20 1008.81 1009.41 1010.01 1010.59 1011.16 1011.72
1001.67 1001.08 1000.55 1000.09 999.73 999.47 999.31 999.26 999.30 999.44 999.63 999.88 1000.15 1000.43 1000.69 1000.93 1001.15 1001.34 1001.50 1001.65 1001.79 1001.92 1002.07 1002.24 1002.44 1002.68 1002.97 1003.32 1003.72 1004.18 1004.71 1005.28 1005.89 1006.53 1007.19 1007.84 1008.48 1009.09 1009.67 1010.23 1010.75 1011.25 1011.73
1000.88 1000.26 999.72 999.26 998.90 998.64 998.49 998.45 998.51 998.66 998.88 999.15 999.46 999.78 1000.09 1000.39 1000.65 1000.88 1001.08 1001.24 1001.39 1001.52 1001.66 1001.82 1002.01 1002.26 1002.56 1002.94 1003.39 1003.91 1004.51 1005.17 1005.87 1006.59 1007.32 1008.02 1008.70 1009.32 1009.90 1010.42 1010.90 1011.34 1011.75
1000.21 999.60 999.06 998.61 998.26 998.01 997.86 997.82 997.88 998.03 998.25 998.53 998.85 999.19 999.53 999.85 1000.15 1000.41 1000.63 1000.81 1000.96 1001.10 1001.23 1001.39 1001.57 1001.82 1002.14 1002.54 1003.03 1003.61 1004.28 1005.00 1005.77 1006.57 1007.35 1008.11 1008.82 1009.47 1010.05 1010.56 1011.01 1011.42 1011.78
999.74 999.14 998.63 998.20 997.87 997.63 997.49 997.43 997.47 997.60 997.80 998.05 998.35 998.68 999.01 999.34 999.64 999.91 1000.14 1000.34 1000.50 1000.64 1000.78 1000.94 1001.13 1001.39 1001.73 1002.16 1002.69 1003.31 1004.03 1004.81 1005.63 1006.48 1007.31 1008.11 1008.85 1009.52 1010.12 1010.63 1011.08 1011.48 1011.83
999.47 998.92 998.45 998.06 997.75 997.52 997.37 997.30 997.31 997.38 997.53 997.74 997.99 998.27 998.56 998.86 999.15 999.41 999.64 999.84 1000.00 1000.16 1000.31 1000.49 1000.71 1000.99 1001.36 1001.82 1002.38 1003.05 1003.80 1004.62 1005.48 1006.36 1007.23 1008.05 1008.81 1009.50 1010.11 1010.64 1011.11 1011.52 1011.89
999.38 998.89 998.48 998.14 997.86 997.65 997.49 997.40 997.36 997.39 997.47 997.60 997.78 997.99 998.22 998.47 998.71 998.94 999.16 999.35 999.53 999.70 999.88 1000.08 1000.33 1000.65 1001.06 1001.56 1002.16 1002.86 1003.63 1004.48 1005.36 1006.25 1007.12 1007.95 1008.72 1009.42 1010.05 1010.60 1011.08 1011.52 1011.92
999.41 999.00 998.66 998.37 998.13 997.94 997.79 997.67 997.60 997.57 997.59 997.64 997.74 997.87 998.03 998.20 998.39 998.58 998.77 998.95 999.13 999.31 999.52 999.76 1000.05 1000.42 1000.86 1001.40 1002.04 1002.75 1003.55 1004.39 1005.27 1006.15 1007.01 1007.83 1008.60 1009.29 1009.92 1010.49 1011.00 1011.46 1011.90
999.49 999.15 998.87 998.64 998.45 998.30 998.16 998.05 997.95 997.89 997.85 997.84 997.86 997.92 998.00 998.11 998.24 998.38 998.53 998.69 998.86 999.06 999.29 999.56 999.90 1000.30 1000.79 1001.36 1002.02 1002.75 1003.54 1004.38 1005.23 1006.09 1006.92 1007.71 1008.44 1009.12 1009.74 1010.31 1010.83 1011.32 1011.78
999.55 999.27 999.05 998.88 998.74 998.63 998.52 998.43 998.34 998.27 998.20 998.16 998.13 998.13 998.16 998.21 998.28 998.37 998.48 998.62 998.78 998.99 999.23 999.53 999.89 1000.32 1000.84 1001.43 1002.10 1002.83 1003.60 1004.41 1005.23 1006.04 1006.82 1007.56 1008.25 1008.90 1009.49 1010.04 1010.56 1011.05 1011.52
999.54 999.30 999.13 999.01 998.93 998.87 998.81 998.76 998.71 998.65 998.60 998.55 998.51 998.49 998.48 998.49 998.52 998.57 998.65 998.76 998.91 999.10 999.35 999.65 1000.02 1000.47 1000.99 1001.59 1002.25 1002.96 1003.71 1004.47 1005.24 1005.99 1006.71 1007.39 1008.03 1008.62 1009.17 1009.69 1010.18 1010.65 1011.12
999.48 999.26 999.12 999.05 999.01 999.00 999.00 999.01 999.01 999.00 998.99 998.97 998.95 998.93 998.91 998.91 998.92 998.95 999.00 999.09 999.21 999.39 999.62 999.92 1000.28 1000.72 1001.24 1001.81 1002.45 1003.13 1003.83 1004.54 1005.25 1005.93 1006.58 1007.19 1007.76 1008.29 1008.79 1009.26 1009.71 1010.15 1010.58
999.42 999.20 999.07 999.02 999.02 999.05 999.11 999.17 999.24 999.30 999.34 999.38 999.40 999.41 999.41 999.42 999.42 999.44 999.47 999.54 999.65 999.80 1000.01 1000.29 1000.63 1001.05 1001.53 1002.08 1002.68 1003.31 1003.96 1004.61 1005.25 1005.86 1006.43 1006.97 1007.47 1007.93 1008.36 1008.78 1009.18 1009.57 1009.97
999.44 999.20 999.06 999.01 999.02 999.09 999.19 999.30 999.43 999.55 999.66 999.75 999.82 999.88 999.91 999.94 999.96 999.98 1000.01 1000.06 1000.15 1000.28 1000.47 1000.72 1001.04 1001.42 1001.87 1002.38 1002.92 1003.50 1004.09 1004.68 1005.25 1005.79 1006.29 1006.75 1007.18 1007.57 1007.95 1008.30 1008.65 1009.00 1009.34
Thickness
5613 5612 5612 5612 5613 5613 5613 5615 5618 5621 5625 5628 5632 5636 5641 5646 5652 5656 5661 5666 5670 5673 5677 5680 5682 5685 5686 5688 5689 5689 5688 5685 5679 5676 5676 5675 5672 5671 5669 5668 5668 5669 5668
5593 5590 5590 5590 5589 5589 5591 5594 5598 5601 5605 5610 5614 5618 5624 5630 5636 5641 5647 5654 5659 5664 5668 5672 5676 5679 5681 5683 5684 5686 5686 5684 5680 5675 5672 5670 5667 5665 5663 5661 5659 5659 5658
5578 5574 5572 5570 5569 5569 5570 5572 5575 5579 5584 5588 5593 5599 5605 5612 5619 5626 5632 5640 5647 5654 5660 5664 5669 5671 5674 5677 5679 5682 5683 5682 5679 5675 5670 5667 5663 5659 5656 5653 5651 5649 5649
5568 5564 5561 5559 5558 5558 5558 5557 5558 5561 5564 5568 5573 5580 5587 5594 5601 5609 5617 5625 5634 5642 5650 5656 5661 5665 5668 5671 5674 5677 5679 5678 5675 5672 5668 5664 5659 5654 5651 5647 5642 5640 5639
5561 5557 5555 5555 5553 5552 5551 5550 5550 5551 5553 5555 5558 5562 5568 5575 5584 5592 5600 5610 5618 5628 5638 5646 5653 5658 5663 5666 5669 5672 5673 5673 5671 5668 5665 5660 5655 5650 5645 5641 5637 5632 5629
5556 5552 5550 5548 5546 5545 5545 5545 5545 5545 5546 5547 5548 5551 5554 5561 5569 5576 5584 5592 5602 5613 5623 5634 5642 5649 5655 5659 5664 5667 5670 5670 5668 5666 5662 5658 5653 5648 5643 5638 5633 5629 5622
5547 5544 5542 5540 5539 5538 5539 5539 5538 5539 5539 5540 5542 5544 5547 5551 5557 5562 5569 5577 5587 5598 5609 5620 5631 5639 5645 5650 5655 5660 5663 5666 5667 5665 5661 5657 5651 5647 5641 5634 5629 5626 5622
5534 5532 5531 5529 5529 5530 5529 5530 5531 5532 5532 5534 5536 5539 5541 5545 5550 5554 5559 5565 5573 5584 5596 5607 5618 5627 5635 5640 5646 5650 5654 5657 5660 5660 5658 5655 5650 5645 5640 5634 5627 5620 5615
5520 5517 5516 5515 5515 5517 5519 5520 5522 5523 5525 5527 5530 5533 5536 5539 5544 5547 5551 5554 5561 5571 5583 5596 5607 5617 5625 5632 5636 5641 5645 5648 5651 5653 5652 5649 5645 5640 5635 5628 5621 5615 5608
5504 5502 5501 5500 5501 5503 5506 5509 5512 5514 5517 5520 5523 5527 5530 5534 5538 5541 5545 5547 5552 5560 5571 5585 5597 5607 5615 5622 5628 5633 5637 5640 5642 5642 5642 5640 5637 5633 5629 5626 5621 5614 5607
5492 5490 5488 5487 5488 5491 5494 5498 5501 5505 5508 5512 5516 5520 5524 5528 5532 5536 5539 5540 5544 5550 5560 5573 5587 5596 5605 5612 5620 5626 5631 5634 5634 5634 5633 5630 5628 5625 5622 5620 5618 5615 5609
5481 5479 5479 5479 5479 5483 5485 5488 5491 5495 5499 5503 5507 5512 5517 5522 5527 5531 5534 5537 5540 5544 5552 5564 5576 5586 5594 5603 5611 5617 5621 5625 5626 5625 5624 5622 5620 5617 5616 5614 5613 5611 5610
5475 5473 5473 5473 5473 5474 5476 5479 5483 5488 5492 5497 5500 5505 5510 5516 5521 5526 5530 5533 5536 5539 5547 5556 5567 5577 5584 5593 5602 5607 5612 5617 5618 5617 5615 5613 5613 5612 5610 5608 5605 5604 5603
5473 5471 5469 5469 5469 5470 5472 5475 5478 5483 5487 5492 5497 5501 5506 5511 5516 5520 5524 5527 5530 5534 5540 5549 5559 5568 5578 5587 5593 5599 5606 5610 5612 5610 5607 5605 5604 5604 5603 5603 5599 5597 5595
5473 5470 5469 5468 5468 5469 5471 5473 5477 5482 5486 5491 5495 5500 5503 5508 5514 5518 5520 5522 5525 5529 5534 5541 5552 5561 5572 5580 5587 5593 5598 5602 5602 5602 5601 5599 5597 5596 5594 5594 5594 5592 5590
5475 5472 5470 5469 5469 5470 5472 5475 5478 5481 5487 5491 5496 5500 5504 5509 5512 5514 5515 5517 5519 5523 5529 5537 5548 5559 5570 5578 5584 5588 5592 5595 5597 5597 5596 5594 5592 5590 5588 5587 5588 5587 5584
5479 5476 5474 5473 5473 5473 5475 5476 5479 5482 5486 5490 5493 5497 5501 5504 5506 5508 5509 5510 5513 5517 5525 5535 5546 5558 5568 5576 5581 5585 5588 5590 5592 5592 5591 5589 5587 5586 5584 5583 5582 5580 5578
5486 5484 5481 5479 5478 5478 5479 5481 5482 5484 5485 5486 5489 5493 5496 5498 5501 5503 5505 5506 5510 5515 5525 5535 5546 5557 5566 5573 5578 5582 5584 5586 5587 5587 5586 5584 5583 5582 5581 5579 5578 5577 5575
5494 5491 5488 5486 5485 5485 5486 5486 5486 5487 5487 5487 5487 5488 5490 5493 5496 5499 5502 5508 5513 5519 5527 5537 5547 5557 5565 5571 5576 5579 5582 5583 5583 5583 5582 5581 5581 5580 5578 5577 5576 5576 5574
5501 5502 5500 5495 5493 5493 5493 5492 5492 5491 5491 5489 5489 5490 5490 5493 5496 5498 5503 5509 5516 5524 5531 5540 5548 5556 5563 5569 5573 5576 5578 5579 5579 5579 5579 5579 5579 5579 5578 5576 5575 5574 5572
5508 5508 5509 5504 5501 5500 5500 5499 5498 5497 5496 5494 5493 5493 5494 5497 5500 5503 5508 5514 5521 5528 5536 5543 5551 5558 5564 5569 5572 5575 5577 5577 5577 5578 5578 5578 5578 5577 5577 5576 5575 5574 5572
5516 5515 5513 5511 5510 5508 5507 5506 5505 5504 5502 5500 5498 5496 5497 5501 5506 5510 5515 5522 5528 5534 5542 5548 5555 5561 5566 5570 5574 5575 5575 5575 5576 5578 5578 5578 5577 5577 5576 5575 5573 5571 5570
5526 5524 5522 5519 5518 5517 5515 5513 5511 5510 5508 5506 5505 5504 5506 5509 5513 5518 5523 5529 5535 5542 5548 5554 5560 5564 5569 5572 5575 5577 5577 5577 5579 5580 5579 5577 5576 5576 5575 5573 5571 5569 5568
5536 5534 5531 5528 5526 5524 5521 5519 5517 5515 5513 5512 5512 5513 5515 5518 5522 5527 5532 5538 5543 5549 5554 5559 5564 5568 5571 5574 5576 5578 5579 5580 5580 5581 5580 5578 5576 5575 5574 5572 5570 5569 5567
5547 5543 5540 5537 5534 5532 5529 5527 5524 5523 5522 5521 5521 5522 5524 5527 5531 5535 5539 5545 5550 5554 5559 5564 5568 5572 5574 5576 5577 5579 5579 5580 5580 5581 5580 5578 5576 5575 5573 5572 5569 5567 5564
5557 5554 5550 5547 5544 5541 5538 5536 5533 5532 5531 5531 5531 5532 5534 5537 5540 5543 5546 5550 5555 5560 5564 5568 5572 5574 5576 5577 5578 5579 5579 5579 5580 5580 5579 5577 5575 5573 5571 5569 5568 5565 5563